Wind_Speed
5 6 7 11 12 11 12 13 14 14 14 13 12 12 11 11 11 11 11 11 11 10 10 9 8 8 7 7 8 8 7 6 6 6 6 6 6 5 5 5 6 6 5 5 4 4 4 5 5 6 6 8 10 11 12 13 12 11 10 11 11 11 11 11 11 10 9 8 8 8 8 7 7 7 8 8 9 9 10 10 11 11 12 11 11
6 6 7 10 12 10 11 13 13 14 13 13 12 12 12 12 12 12 11 11 10 10 9 9 8 7 7 6 7 7 7 6 6 6 6 5 5 5 5 5 5 6 6 5 5 4 4 4 5 6 6 8 10 11 12 12 11 10 10 10 11 11 11 10 9 8 8 7 7 7 7 7 7 7 8 9 10 10 11 11 12 12 12 11 11
8 7 7 9 12 10 10 11 12 13 12 12 12 12 12 11 12 12 12 12 11 10 9 9 8 8 7 6 6 6 6 6 6 6 6 6 5 4 5 5 5 5 5 5 5 4 4 4 5 6 6 8 10 11 12 11 10 9 10 10 10 9 9 8 7 6 6 6 5 6 6 6 7 8 8 9 10 11 12 12 12 12 11 11 11
10 9 7 7 11 10 9 10 11 12 11 11 11 11 10 10 11 11 11 11 11 11 10 9 8 8 7 6 5 5 5 5 6 6 6 6 5 5 4 5 5 5 5 5 4 4 4 5 5 6 7 8 10 10 11 10 9 9 10 10 9 8 7 6 6 5 5 4 4 5 6 7 8 9 9 10 11 12 12 12 12 12 11 12 12
12 11 8 6 9 11 9 10 10 11 10 10 10 9 8 9 9 10 10 10 11 11 10 9 8 8 8 6 4 3 4 4 5 5 5 5 5 5 5 5 5 5 5 5 4 4 5 5 5 7 8 9 10 10 10 9 9 9 9 9 8 7 6 5 5 4 4 4 5 5 6 8 9 10 11 12 12 13 12 12 12 13 14 14 13
12 12 10 7 8 10 9 9 10 10 9 9 9 8 6 6 7 8 9 9 10 10 10 9 8 7 8 7 5 3 3 3 4 5 5 5 5 4 4 4 5 5 5 5 5 5 5 6 6 7 10 11 10 9 9 9 9 9 9 8 6 6 5 4 4 4 4 4 6 6 7 9 10 11 12 13 14 14 14 14 14 15 15 15 16
13 12 11 9 8 10 9 9 10 10 8 8 8 6 5 5 5 6 7 7 8 9 9 9 8 8 8 7 6 4 2 2 3 4 4 4 4 4 4 4 4 5 5 5 5 5 5 6 7 8 10 11 10 9 8 8 9 9 9 8 6 5 5 4 4 4 5 6 7 7 8 10 10 12 14 14 15 15 15 16 16 17 16 17 17
14 14 13 11 10 10 9 9 9 10 9 7 7 6 4 3 4 4 5 6 6 7 7 8 8 8 8 7 7 5 3 2 2 3 3 4 4 4 3 4 4 4 5 5 5 6 6 7 8 9 10 11 10 8 7 7 8 9 9 7 5 4 4 4 4 6 6 7 8 8 9 10 11 13 14 15 16 15 16 17 17 17 17 18 18
14 14 15 13 11 11 10 9 9 10 9 8 7 6 4 3 2 2 3 4 5 5 6 6 7 7 7 7 7 6 4 2 2 2 2 3 3 3 3 3 4 4 5 5 5 6 6 7 8 9 10 10 9 7 7 7 8 8 8 7 5 3 2 3 4 5 6 7 8 8 9 10 11 14 15 15 15 16 16 17 17 17 17 18 18
16 14 16 15 14 12 12 10 9 9 9 9 7 6 5 3 1 0 1 3 3 3 4 5 5 6 7 7 7 6 5 3 1 2 2 2 2 3 3 3 3 4 4 5 6 6 6 7 8 10 9 9 8 7 6 7 7 7 7 5 3 2 2 3 4 4 5 6 7 8 10 11 12 13 14 15 15 16 16 16 16 16 17 18 18
16 15 15 16 16 14 13 12 10 9 9 9 8 7 5 4 2 2 1 2 2 2 2 3 3 4 5 6 6 6 5 4 3 1 2 2 2 2 2 3 3 3 4 5 6 6 6 6 8 9 9 8 7 6 6 6 6 5 5 4 2 1 2 4 5 5 5 6 7 8 10 11 12 12 14 14 14 15 15 15 16 16 17 18 19
16 15 14 15 16 15 15 13 12 10 10 9 8 8 6 5 4 4 3 3 3 3 3 2 2 2 3 4 4 4 4 3 3 2 1 2 2 2 2 2 3 3 4 5 5 6 6 6 7 8 8 8 7 6 6 5 5 3 2 2 1 2 4 5 5 5 5 7 8 8 10 11 12 12 12 12 13 13 14 15 15 16 17 17 18
14 14 14 14 15 16 16 15 13 12 11 10 9 8 7 6 5 5 5 5 5 4 4 4 3 2 2 2 3 3 3 2 2 2 1 2 3 3 2 2 2 3 3 4 5 6 6 6 7 7 7 7 6 6 5 4 3 2 1 1 2 3 4 5 5 5 5 7 8 9 10 11 11 12 11 12 12 13 13 14 14 15 16 16 17
14 13 13 13 15 16 16 15 14 14 13 11 10 9 8 7 7 7 7 7 6 6 6 5 4 4 3 2 2 2 2 2 1 1 1 1 2 3 3 3 3 3 3 4 5 6 6 6 6 6 6 6 5 5 4 4 3 1 1 2 3 4 4 5 5 5 6 7 8 9 10 11 11 11 12 12 12 12 12 13 13 14 15 16 17
14 13 12 12 14 15 15 15 15 14 14 12 11 10 10 9 8 8 8 7 7 7 7 6 6 5 5 4 2 2 2 2 2 1 1 1 1 2 4 4 3 3 4 4 5 6 6 6 6 6 6 5 4 4 4 3 3 2 2 3 4 4 5 5 6 7 8 8 9 9 10 11 11 11 11 11 11 11 11 12 13 14 16 17 18
14 13 12 12 13 14 14 14 14 14 14 12 11 11 11 10 10 9 8 8 8 8 8 7 7 7 6 5 4 3 3 3 2 1 1 1 1 1 3 4 4 4 5 5 6 6 7 6 6 6 6 5 4 4 4 4 3 3 3 4 4 5 5 6 7 8 9 8 9 10 11 11 10 10 10 10 10 10 11 12 13 15 16 17 18
15 13 12 11 12 13 14 14 14 13 12 11 10 11 11 11 10 9 9 8 9 9 9 9 8 8 7 7 6 5 4 3 3 2 2 1 1 2 3 4 5 5 6 6 7 7 7 6 6 6 6 5 4 4 4 4 4 4 4 4 5 5 6 7 8 9 9 9 10 11 11 11 10 10 10 9 10 10 11 12 13 15 16 18 19
15 14 13 11 11 12 14 13 13 12 11 10 9 9 10 10 10 9 9 9 9 10 10 9 9 9 8 8 7 6 5 4 3 3 3 3 2 2 3 4 6 6 6 7 8 8 8 7 7 7 7 6 4 4 4 5 5 5 5 5 5 6 7 8 9 10 10 9 10 11 10 10 10 10 9 9 9 10 11 11 13 15 17 18 20
16 15 15 13 12 11 12 12 11 11 10 9 8 8 9 9 10 9 9 9 10 10 10 10 10 10 9 8 8 7 6 5 4 4 4 4 4 4 4 4 6 7 7 8 9 9 9 9 8 8 8 7 5 4 5 6 6 6 6 6 6 7 8 9 10 11 10 10 10 10 10 10 9 9 8 8 9 10 11 12 14 16 18 20 21
16 16 16 14 13 11 10 10 11 10 10 9 8 8 9 9 10 10 9 9 10 10 10 10 10 10 10 9 9 8 7 6 5 5 5 5 5 5 5 5 6 7 8 9 9 9 10 10 10 10 9 9 7 5 5 6 7 6 7 7 7 8 8 10 11 11 10 10 10 10 9 9 9 8 8 8 9 10 12 13 15 17 19 21 22
15 16 17 15 14 12 10 9 9 10 9 9 8 8 8 9 9 9 9 9 10 10 10 10 10 10 10 10 9 9 8 8 7 6 5 5 6 6 6 6 6 7 8 9 9 10 11 11 11 11 10 10 8 7 6 7 7 7 7 8 8 8 9 10 10 11 11 10 9 9 9 9 8 8 8 9 10 11 13 15 17 19 20 22 22
15 17 17 15 15 13 11 10 8 9 9 8 7 7 7 7 8 8 8 9 10 10 10 10 11 11 10 10 10 9 9 9 8 7 6 6 6 7 7 7 7 8 9 9 10 11 11 12 12 12 12 11 10 8 8 8 8 8 8 8 9 9 9 10 10 10 10 9 9 9 9 8 8 8 9 10 11 12 14 16 18 20 22 22 23
12 14 14 14 14 14 12 11 9 8 8 8 7 6 5 6 6 6 7 8 9 10 10 10 11 11 11 11 11 10 9 9 8 7 7 7 7 7 8 8 8 8 9 10 10 11 12 13 13 13 13 12 11 9 9 8 8 8 9 9 9 9 9 9 9 10 10 9 9 9 9 9 9 9 10 11 12 14 16 17 19 21 23 23 24
7 9 10 11 13 15 14 12 10 8 8 8 6 5 4 4 4 5 6 7 8 9 9 10 10 11 11 11 11 11 10 9 9 8 8 8 8 8 8 8 9 9 9 10 11 12 12 13 14 14 14 13 11 10 9 9 9 9 10 10 10 10 9 8 9 10 9 8 9 9 9 9 9 10 11 12 13 15 16 18 20 22 23 24 24
7 7 9 10 12 15 15 13 12 9 8 7 6 5 4 3 2 3 4 5 6 8 8 9 10 11 11 11 12 11 11 10 9 9 8 9 9 8 8 8 9 9 10 11 11 12 12 13 14 14 14 13 11 10 10 10 10 10 11 11 10 9 9 9 10 10 9 9 10 9 9 10 10 11 12 13 14 15 17 19 21 23 23 23 24
10 8 7 9 11 14 15 15 13 11 9 8 7 5 4 3 2 2 2 3 5 7 8 9 10 11 11 11 12 12 11 10 10 9 9 9 9 9 8 8 9 10 10 11 11 12 12 13 14 14 14 13 11 10 10 11 11 11 11 11 10 9 9 9 10 10 10 10 10 9 9 10 11 12 13 14 15 16 18 20 22 23 23 23 23
15 11 10 11 12 14 16 16 15 12 11 9 8 6 5 3 2 1 0 2 4 6 7 8 10 10 11 12 12 12 11 11 10 10 10 10 10 9 9 9 9 10 10 11 11 12 12 13 13 14 13 12 11 11 11 12 12 11 11 10 10 9 8 9 10 10 10 10 10 10 10 10 11 13 13 14 16 17 19 20 22 22 22 22 22
19 16 14 15 14 15 16 16 15 14 12 11 9 7 5 3 2 1 1 1 2 4 6 7 9 10 12 13 12 12 12 11 10 10 10 11 10 9 8 8 9 9 10 11 11 12 12 13 14 13 13 13 12 12 12 12 11 11 11 10 9 8 8 9 10 10 10 10 11 10 10 11 12 13 14 15 17 18 19 20 21 21 21 21 22
18 19 19 17 14 14 14 15 15 15 14 12 10 9 7 4 2 1 0 1 3 3 4 5 8 10 12 13 12 12 12 11 10 10 11 11 10 8 8 8 9 9 9 10 11 12 12 13 14 14 14 14 13 12 12 11 10 10 10 9 9 8 8 9 10 10 10 10 10 11 11 11 12 13 15 16 17 18 19 20 20 20 20 21 22
16 16 17 15 14 15 13 14 15 15 15 13 12 10 8 6 4 3 1 1 3 4 3 4 7 9 12 13 12 12 13 11 10 10 11 11 10 8 8 9 9 9 9 10 11 12 12 13 13 14 14 14 13 12 11 10 10 9 9 9 9 9 9 10 10 9 9 10 10 11 12 12 13 14 15 17 18 18 19 19 19 20 20 21 22
16 13 13 14 16 16 14 15 15 15 15 15 13 12 10 8 6 5 3 3 3 4 3 4 6 8 11 12 12 12 12 11 9 10 11 10 9 8 8 9 10 10 10 10 11 12 12 13 13 12 13 13 12 11 10 10 9 9 9 9 9 10 10 9 8 8 8 9 11 12 13 13 13 15 16 17 18 18 18 19 19 20 21 21 22
20 16 14 14 16 16 15 16 17 16 16 15 14 13 12 10 8 6 5 4 4 4 3 3 5 8 9 10 11 11 11 10 9 10 10 9 9 8 9 10 10 10 10 10 11 12 12 12 12 11 11 12 11 10 10 9 9 8 9 9 10 11 10 8 7 7 8 10 11 12 13 14 14 15 16 17 17 17 18 18 19 20 21 22 22
24 19 16 16 16 15 15 17 18 18 16 16 15 14 13 11 9 8 7 6 5 5 4 3 5 7 8 9 10 11 11 10 9 10 9 9 9 9 10 10 10 10 10 10 11 12 12 11 10 10 10 10 10 9 9 9 8 8 9 10 11 10 9 7 6 7 8 10 11 12 13 14 15 16 16 16 16 17 17 18 19 20 21 21 22
27 23 19 19 18 16 16 17 18 18 16 16 16 14 13 11 10 9 8 7 6 5 4 3 5 7 8 9 9 11 11 9 9 9 9 10 11 11 11 10 10 10 10 10 11 12 11 10 10 10 9 9 9 8 8 8 8 9 10 11 10 9 7 6 7 8 9 10 11 12 13 15 15 16 16 16 17 17 17 18 19 20 21 21 21
27 26 22 19 18 15 15 16 17 17 16 16 16 15 13 11 11 10 9 8 7 6 4 4 5 7 8 8 9 10 10 8 9 10 10 12 13 12 11 10 10 10 10 11 11 11 11 10 10 10 9 9 8 7 8 9 9 10 11 10 8 6 6 7 8 8 9 10 11 12 13 14 15 16 16 16 17 17 17 18 20 21 21 21 21
28 26 25 20 17 14 13 13 13 14 15 16 15 15 14 12 12 11 10 10 8 6 4 4 6 8 8 8 9 9 9 9 10 11 12 13 13 12 11 10 9 9 10 10 11 11 10 10 10 10 9 8 8 8 9 10 11 11 10 7 5 6 6 7 8 9 10 11 12 13 13 14 15 16 16 16 16 16 18 19 20 21 21 21 20
30 28 26 22 17 15 13 11 9 11 14 16 16 16 15 14 13 11 11 11 9 7 5 5 6 8 8 8 9 9 9 9 11 12 13 13 13 12 10 9 9 9 9 9 10 11 10 10 10 10 9 8 8 9 9 10 10 10 7 5 5 6 7 7 9 10 11 11 12 13 13 14 15 15 15 15 16 16 18 20 21 21 21 21 20
32 29 28 24 19 16 15 11 9 10 13 16 17 17 17 15 14 13 12 11 10 8 6 6 7 8 8 8 9 9 10 11 12 13 13 13 13 12 10 9 9 9 9 9 10 10 10 10 10 9 9 9 9 9 9 9 9 7 5 5 6 6 7 8 9 10 11 12 13 13 13 14 14 15 15 15 16 17 19 20 21 21 21 20 19
33 31 30 27 22 20 18 14 11 9 11 15 17 18 18 16 16 14 12 12 11 9 7 6 7 9 9 9 9 9 11 12 13 13 12 13 13 12 10 10 10 10 10 9 8 8 9 10 10 10 10 9 9 9 9 9 8 6 5 5 6 7 8 9 10 11 12 13 13 13 13 14 14 14 15 16 17 19 20 21 21 21 20 19 18
36 34 33 29 25 23 21 18 13 11 12 14 16 17 17 16 16 15 13 12 12 9 7 6 8 9 10 9 9 10 12 12 12 12 12 12 13 12 11 10 11 11 10 9 9 9 10 10 10 10 10 9 9 9 8 8 7 6 5 6 7 8 9 10 10 12 13 13 13 13 13 13 14 14 15 17 18 20 20 21 21 20 19 19 18
38 36 36 31 27 25 23 19 15 15 15 14 15 16 15 14 13 12 11 13 12 9 8 7 8 10 10 10 10 11 13 13 12 12 11 12 12 12 11 10 12 12 11 10 10 10 9 10 10 10 10 9 8 8 8 8 7 6 6 7 8 9 10 10 11 12 13 13 13 14 14 14 14 15 16 18 19 20 21 21 20 19 19 18 18
38 38 37 32 29 27 24 19 17 18 17 14 14 16 15 12 11 10 12 14 13 10 8 7 9 11 11 11 11 12 13 13 12 12 12 12 12 12 11 11 12 13 12 12 11 11 10 10 10 10 10 9 9 9 8 7 6 6 7 8 8 9 10 11 12 12 13 14 14 14 14 14 15 16 17 18 19 20 20 20 20 19 18 18 17
38 39 39 35 32 29 25 22 20 20 18 14 13 14 15 13 12 12 14 15 14 12 10 9 10 12 13 13 13 14 15 14 13 12 12 12 12 12 12 11 12 14 14 13 13 12 11 11 11 10 10 10 10 10 8 8 7 7 8 8 9 10 11 11 12 12 13 13 14 14 14 15 16 17 18 19 20 20 20 20 19 19 19 18 16
41 42 41 37 32 29 26 25 22 19 16 13 12 13 15 14 13 15 17 17 15 15 13 11 11 11 13 14 14 15 15 15 14 13 12 12 12 13 13 12 13 14 15 15 14 13 12 11 11 10 10 10 10 10 9 8 8 8 9 8 9 10 11 11 12 12 13 13 13 14 14 15 16 18 19 20 20 20 20 20 20 20 19 18 16
42 42 41 37 33 29 27 26 23 19 15 13 12 13 15 15 15 17 19 19 18 18 14 11 10 10 11 12 13 14 14 15 14 13 12 12 12 13 14 14 14 15 16 16 16 14 13 12 11 11 11 11 11 11 9 8 8 8 9 8 9 10 10 12 12 12 12 13 13 14 15 16 17 18 20 20 20 20 20 20 21 20 20 19 17
41 42 41 38 34 31 29 27 23 19 16 13 13 13 14 14 15 18 18 17 18 17 12 9 9 10 11 12 13 14 14 14 14 13 13 12 13 14 14 15 15 16 17 18 17 15 14 13 12 12 12 12 12 10 9 9 9 8 9 9 10 10 11 12 12 12 13 13 13 14 15 16 18 19 20 21 21 20 20 21 21 21 20 19 17
38 40 40 39 37 33 30 26 22 19 16 14 14 14 13 13 14 16 17 17 17 14 11 11 12 13 14 15 14 14 14 14 14 14 14 14 14 14 15 16 16 18 19 19 18 16 14 13 13 12 12 13 12 11 10 10 9 8 9 10 10 11 11 11 12 12 13 13 13 15 16 17 18 19 21 21 21 20 20 21 22 21 20 19 18
33 37 40 40 39 34 30 27 23 19 15 14 14 13 12 12 13 14 16 19 19 16 14 14 15 16 16 16 15 15 15 15 15 15 15 15 15 15 16 16 17 19 20 20 19 18 16 14 13 13 14 14 13 13 12 11 9 9 10 10 10 11 11 11 11 12 13 13 14 15 16 18 19 20 21 21 20 20 20 21 22 21 21 19 18
33 36 39 40 39 36 32 28 23 19 16 15 15 14 12 12 13 13 16 20 22 20 18 17 18 18 16 15 16 16 16 16 16 16 16 16 17 17 17 17 19 19 20 22 21 19 17 15 15 14 15 15 15 14 13 11 10 11 10 10 10 11 11 11 11 12 13 14 15 16 17 19 20 20 20 21 20 20 20 21 22 21 21 19 18
35 35 38 42 40 37 34 29 24 19 17 16 17 15 14 13 14 14 16 21 24 22 20 20 19 18 16 15 15 15 15 16 16 16 16 17 18 18 16 17 19 19 20 21 21 21 19 16 15 15 16 16 15 14 12 11 11 11 11 10 11 11 12 11 11 12 13 14 15 16 18 20 21 21 20 20 20 20 21 21 22 21 21 20 18
37 37 42 44 41 37 34 29 24 21 19 19 19 18 16 15 15 15 17 22 25 23 21 19 18 17 15 14 14 14 15 16 16 17 16 16 17 18 16 17 18 18 18 18 20 23 19 15 15 16 15 15 14 14 13 12 13 12 12 11 11 12 12 12 12 13 13 14 16 17 18 20 21 21 20 20 20 20 21 22 22 21 21 20 19
Wind_Direction
194 175 148 133 130 124 118 113 108 106 104 101 94 88 81 76 73 71 70 70 71 70 68 67 68 65 64 65 69 70 70 71 71 77 82 89 94 101 108 116 124 124 122 119 121 128 119 115 118 114 111 115 124 127 122 118 122 126 117 107 102 99 96 91 85 80 78 75 71 63 54 48 44 42 41 38 33 26 20 15 12 9 6 2 359
203 184 162 141 138 132 124 118 113 110 108 104 97 91 83 77 73 70 68 68 69 69 69 66 65 65 67 67 68 72 73 77 76 79 84 94 101 107 111 114 122 125 129 134 139 142 126 119 122 118 115 119 127 129 122 122 127 123 111 106 103 101 98 93 88 82 77 72 67 62 54 44 38 32 30 27 24 19 16 13 10 6 1 355 352
197 191 175 151 145 142 131 124 120 117 113 109 101 96 87 80 74 70 67 66 66 65 66 63 61 60 63 67 67 70 71 77 80 82 83 91 104 111 114 119 123 127 132 140 145 146 132 125 131 124 121 125 130 129 124 126 125 116 110 107 105 103 100 96 91 83 74 66 59 56 47 38 31 23 20 19 17 14 12 9 4 359 354 350 348
192 193 189 165 153 151 143 132 127 125 119 115 106 101 93 85 77 70 68 65 65 61 61 60 58 56 56 60 67 72 68 73 78 84 87 89 97 106 113 119 123 128 130 135 141 143 136 131 139 133 128 131 133 132 129 129 122 114 112 110 109 105 99 94 87 77 65 54 46 41 31 23 17 12 10 11 11 9 7 2 358 356 354 354 354
190 190 196 185 162 159 155 143 135 134 128 122 114 107 99 91 83 74 69 66 64 60 58 57 56 53 51 53 62 80 75 72 74 80 88 94 93 98 109 116 122 125 127 132 141 143 139 138 145 140 135 137 138 139 135 130 123 118 116 114 112 103 94 87 81 67 50 42 36 28 18 11 4 0 1 3 6 3 0 359 0 2 2 2 2
189 189 196 196 173 168 164 154 144 142 139 130 123 117 107 97 89 79 72 67 63 60 59 57 54 49 45 49 54 76 96 82 75 78 82 93 97 100 107 114 120 123 127 132 139 142 141 141 147 144 140 142 144 145 140 133 127 123 118 115 110 96 86 75 70 55 37 30 22 16 10 0 353 351 356 0 0 358 359 3 7 8 8 9 10
190 188 195 198 183 177 175 165 154 151 151 140 134 130 120 104 93 82 73 67 64 59 59 58 52 42 37 43 49 61 100 111 90 82 81 87 98 106 112 117 121 123 128 131 137 140 142 143 147 148 145 147 150 150 144 137 129 123 118 114 103 85 71 52 36 27 21 17 10 6 3 353 347 349 357 1 358 358 2 8 11 12 14 15 16
194 188 193 199 190 184 186 177 166 160 161 155 146 144 136 116 97 83 71 62 61 60 58 58 52 40 31 34 40 48 65 120 126 103 87 83 91 105 118 126 129 128 128 130 137 138 143 146 149 151 151 152 153 153 146 135 126 122 119 115 102 81 63 37 13 5 4 4 2 359 358 350 347 352 359 1 358 3 8 11 13 14 16 17 18
204 192 192 198 195 191 194 188 178 171 170 168 163 160 155 145 112 82 66 54 50 52 56 54 50 44 32 25 30 37 44 71 139 142 109 86 84 96 114 129 137 137 134 134 137 138 145 150 153 154 156 157 156 154 143 131 126 125 122 119 111 92 59 25 0 352 350 353 354 354 354 350 350 355 1 1 360 6 11 14 15 15 16 16 17
217 203 193 197 198 196 198 196 189 183 181 178 178 178 174 180 173 101 38 34 32 31 46 46 42 46 37 24 20 25 35 42 78 154 145 114 90 87 104 123 136 143 142 140 139 140 148 155 157 158 159 160 159 152 140 133 130 129 125 123 117 93 38 9 355 345 344 349 352 351 350 349 351 358 6 4 3 8 12 15 14 15 16 15 16
221 216 200 196 198 200 202 202 199 194 193 190 190 192 191 199 221 254 301 336 348 353 5 27 25 37 40 27 14 14 24 35 44 110 162 157 130 99 99 115 131 143 147 144 143 144 152 162 165 163 162 162 159 151 142 137 135 135 131 130 120 68 18 1 356 347 340 345 348 350 349 348 352 1 7 4 4 10 13 14 14 15 16 16 16
220 219 210 201 199 202 205 206 205 206 205 203 201 203 206 210 230 258 276 295 303 311 320 341 351 9 30 28 14 2 6 25 38 55 142 174 171 154 125 122 132 140 152 151 150 152 160 171 175 171 164 164 161 153 148 146 144 144 139 132 87 37 19 5 360 350 334 338 344 346 349 349 355 3 6 3 6 12 14 14 15 15 16 16 15
216 216 215 208 205 204 208 209 209 213 213 214 215 216 220 224 237 255 271 281 289 291 297 309 314 325 341 11 11 349 340 359 29 45 77 173 184 181 168 151 145 147 159 161 160 164 172 183 188 179 170 169 164 158 160 161 161 157 178 343 8 16 16 5 0 350 331 334 342 346 349 351 357 3 6 7 9 12 14 14 15 16 16 14 13
210 213 216 213 210 209 211 212 213 216 219 222 224 230 233 237 245 255 267 274 282 286 287 294 295 299 299 315 340 327 307 305 349 33 45 134 193 191 185 180 172 165 172 173 174 178 185 196 199 188 181 179 170 170 176 184 186 195 264 314 338 355 358 349 347 342 334 338 346 350 351 352 358 4 7 9 9 10 12 14 15 15 13 11 9
205 206 210 214 215 215 215 216 217 218 222 226 230 238 242 245 250 256 265 270 277 280 281 284 285 287 284 282 289 296 287 276 286 326 11 14 251 208 198 195 193 187 188 190 189 192 198 206 207 198 196 193 183 185 197 211 217 237 272 302 319 338 341 336 336 337 339 344 349 352 353 353 358 5 7 7 8 9 10 12 13 11 9 7 6
206 207 208 209 215 217 218 219 219 220 223 226 233 239 246 251 254 258 263 266 272 274 275 275 277 279 275 272 271 273 274 272 273 282 310 334 327 250 219 206 204 205 203 206 205 204 209 213 215 211 212 210 201 203 216 233 243 259 280 300 313 324 328 328 330 334 338 342 348 352 354 353 357 4 5 4 5 8 9 8 9 6 4 3 2
211 216 218 212 213 214 216 219 218 220 222 223 229 237 244 250 254 257 260 264 268 270 272 270 270 270 268 266 265 266 266 271 272 272 274 275 300 272 238 220 212 214 215 216 215 216 219 221 221 221 225 227 224 220 231 248 258 270 285 299 306 312 316 321 325 331 337 342 348 352 353 351 356 1 359 359 2 6 6 4 4 1 359 359 359
219 221 224 221 216 210 211 213 215 217 219 221 224 233 241 246 251 253 255 259 263 266 268 268 268 265 263 261 260 263 262 267 272 268 259 252 259 259 245 233 223 221 221 223 222 222 226 227 226 226 232 237 241 238 243 254 263 274 285 294 299 303 310 318 325 331 338 344 346 349 350 348 353 356 353 354 357 1 359 359 360 357 356 356 355
228 232 229 225 221 214 210 207 208 212 213 214 216 225 232 238 243 245 248 251 255 260 263 265 265 263 260 257 258 260 259 261 267 266 257 247 248 250 246 241 236 231 228 229 229 228 230 231 229 230 235 240 247 248 251 257 264 273 283 290 295 301 311 321 327 331 336 342 343 346 346 345 349 350 346 347 352 355 351 352 355 355 354 353 352
230 240 236 227 226 221 216 207 199 201 203 203 206 213 223 230 234 237 240 242 247 251 255 260 259 260 258 256 257 258 258 257 260 265 260 249 246 247 244 244 244 241 238 236 236 234 234 234 233 235 238 242 248 251 256 261 266 274 282 289 296 305 316 323 327 329 331 337 342 344 342 342 344 343 339 341 348 350 346 348 353 354 353 351 350
226 236 237 232 231 227 226 218 198 193 194 194 197 206 218 225 229 233 235 236 241 244 248 253 254 257 257 256 257 257 258 256 256 258 261 257 250 248 245 244 247 247 247 243 240 238 238 238 237 238 241 245 250 254 260 264 269 277 283 290 300 309 318 322 325 327 329 334 339 340 339 338 337 335 334 338 347 346 345 349 351 351 350 349 349
225 228 234 236 232 229 234 231 207 192 188 187 191 200 215 222 227 230 233 234 236 240 243 247 251 253 255 257 257 257 258 257 256 255 260 262 257 253 248 246 247 248 249 247 244 241 242 242 241 243 245 249 254 257 261 266 272 280 287 293 301 309 315 321 325 326 326 330 332 334 334 333 329 329 331 338 345 344 345 348 349 348 347 347 347
225 224 229 237 235 231 236 238 222 198 186 184 185 192 206 214 224 230 233 234 233 237 242 245 248 250 254 258 259 259 260 260 258 256 259 262 262 258 253 251 250 249 248 248 246 245 245 244 243 246 249 254 258 260 263 269 275 282 287 290 296 304 311 319 326 325 322 323 325 329 330 328 327 327 331 339 345 344 345 347 347 346 345 345 345
234 231 231 239 243 238 236 238 230 209 190 184 182 182 189 203 218 229 234 235 235 238 242 245 247 249 252 256 260 260 261 263 260 257 257 260 263 261 258 255 253 252 249 246 244 245 246 245 245 248 253 259 263 264 268 273 276 278 280 285 292 300 307 315 323 322 316 315 318 323 326 326 325 325 330 337 342 343 344 345 344 344 343 343 343
253 250 246 247 252 247 238 237 234 218 200 189 183 178 175 186 201 227 237 237 240 243 245 247 248 249 252 255 260 262 263 263 261 258 258 260 262 262 260 257 254 252 249 246 242 243 246 247 249 252 257 262 266 268 270 273 274 273 277 284 293 301 305 310 317 314 307 307 310 316 322 323 321 322 328 334 338 340 342 343 342 342 341 341 340
260 280 281 272 267 257 243 236 235 223 209 199 190 181 173 171 177 215 237 241 246 248 248 249 249 249 251 254 258 261 262 262 261 259 261 262 262 262 259 255 253 250 245 243 242 243 245 248 251 255 260 265 267 268 269 270 270 273 279 286 295 301 303 307 309 301 295 299 302 307 315 320 320 321 327 332 334 337 340 340 339 339 339 338 338
246 274 294 291 283 269 249 237 235 226 216 211 202 189 178 172 164 167 224 251 251 250 248 247 249 250 249 251 254 259 261 261 261 261 262 262 261 260 258 254 251 247 242 238 237 239 242 246 251 255 259 263 264 264 263 264 268 275 282 290 296 298 299 302 298 289 289 293 295 302 312 319 321 322 326 331 332 335 337 337 337 337 336 336 336
234 248 268 279 281 271 252 238 234 230 224 220 212 200 193 188 180 138 74 295 271 256 248 245 247 249 248 248 251 256 261 262 262 261 261 259 258 257 256 255 252 247 242 237 235 236 239 243 247 251 254 256 257 258 259 262 269 277 284 290 293 293 295 293 285 283 288 290 294 303 314 322 324 324 326 329 332 334 336 336 335 334 334 335 335
230 237 250 265 272 265 250 238 233 232 230 224 217 211 208 210 211 192 106 320 299 280 258 245 244 247 248 247 248 252 257 260 261 262 260 257 255 253 255 257 254 248 243 240 239 239 240 241 243 247 249 252 254 257 260 266 271 275 280 286 288 290 289 281 277 281 285 288 297 308 318 324 325 326 327 330 333 333 334 333 332 332 333 334 335
229 237 248 258 267 265 252 239 235 233 233 228 221 218 219 224 225 218 226 293 305 297 270 243 240 242 244 244 244 248 254 259 261 263 263 258 253 252 256 256 250 246 244 244 244 243 241 242 244 245 248 252 255 260 264 270 274 275 279 281 285 287 279 273 276 280 283 291 303 311 318 324 326 327 329 331 332 332 331 331 331 332 333 333 332
237 249 253 251 258 264 258 246 241 238 236 231 224 223 226 230 231 229 241 265 292 294 271 242 236 236 238 239 241 247 252 255 258 262 262 257 254 255 254 249 245 244 245 247 247 245 244 246 248 249 252 256 259 263 268 272 273 274 276 277 277 275 270 273 280 283 290 300 307 312 318 324 327 329 330 330 330 329 329 330 331 332 332 331 330
247 254 251 250 255 260 261 254 248 244 240 234 227 227 229 233 237 236 243 255 273 284 267 240 234 232 232 235 240 245 248 250 253 257 257 256 258 258 251 245 244 244 246 248 250 250 250 252 254 255 259 261 262 267 272 271 270 272 272 268 264 264 267 276 285 291 299 304 307 313 320 325 328 329 329 328 328 328 329 330 330 330 330 329 330
247 247 244 248 255 254 257 257 252 247 242 235 229 228 229 234 239 237 243 252 261 272 257 234 234 230 228 231 237 242 245 247 251 255 256 258 258 255 250 246 244 244 245 247 252 255 257 258 260 261 263 263 263 267 269 266 267 267 261 257 259 265 272 282 294 301 301 303 309 316 321 324 326 326 326 326 327 328 328 329 329 329 328 328 330
244 245 244 244 247 247 251 255 253 248 241 234 229 226 229 235 239 239 243 246 254 260 244 237 237 226 223 228 233 238 243 247 251 254 256 255 252 250 247 246 247 249 248 247 251 257 260 261 262 261 261 260 260 263 264 262 261 256 253 257 263 271 280 295 304 304 303 307 313 318 320 322 323 323 324 326 326 327 327 328 328 327 327 328 329
240 244 245 239 238 240 247 251 250 246 241 235 230 227 230 235 237 239 241 241 248 252 239 243 236 222 221 226 230 236 243 249 253 254 255 252 247 246 245 245 249 253 253 251 254 258 258 258 258 258 254 248 247 248 249 249 248 247 251 257 264 278 293 304 306 305 307 311 314 316 318 319 321 322 324 324 324 325 326 326 326 326 327 328 330
239 243 243 235 234 232 234 238 240 241 239 237 232 230 234 236 238 238 237 238 243 244 238 244 234 221 221 224 228 235 241 248 250 249 251 249 244 245 245 246 250 251 250 253 257 256 252 251 255 256 249 242 238 234 235 237 240 244 249 255 268 288 300 303 304 306 309 311 312 313 316 318 320 321 321 321 322 324 325 324 324 324 327 329 331
240 243 240 233 232 224 218 221 232 240 239 238 235 238 241 240 240 239 236 236 238 240 242 246 230 217 219 224 228 233 238 242 244 245 247 246 244 246 248 250 253 248 246 252 256 252 246 245 248 250 244 238 233 229 230 236 242 249 254 267 285 294 297 300 304 308 310 311 310 312 316 319 320 320 319 319 321 323 323 323 323 324 328 331 332
240 242 238 232 226 215 212 219 231 236 237 240 241 245 245 244 244 240 234 233 234 240 244 241 221 211 216 221 226 229 232 237 240 243 245 246 246 248 250 254 255 249 247 253 253 249 246 246 244 242 240 235 231 228 232 242 252 261 274 289 295 296 297 302 307 309 309 308 309 313 318 320 319 318 318 319 320 322 322 323 324 326 329 331 332
240 241 235 228 221 213 213 219 228 236 240 242 244 248 250 251 251 243 237 234 235 240 240 233 214 209 214 219 225 228 230 236 239 243 245 246 248 247 248 254 255 251 249 251 251 248 247 246 242 239 238 236 232 230 235 248 257 267 283 293 294 296 302 308 310 309 307 307 310 316 319 320 318 317 318 319 320 322 323 323 324 327 329 330 332
237 237 232 226 222 219 219 220 226 239 248 250 250 253 256 259 257 252 246 236 234 236 230 224 212 210 214 219 224 226 231 236 240 242 243 244 248 247 248 251 251 249 249 249 248 247 246 245 243 243 244 240 236 235 241 250 257 269 283 289 293 300 306 309 310 307 307 309 314 317 318 318 316 317 319 319 321 322 322 323 324 325 327 329 330
235 232 228 224 223 224 226 225 226 235 248 261 261 259 262 262 261 259 246 233 232 232 228 225 215 212 215 219 223 226 231 236 239 241 241 244 247 248 249 249 247 247 250 250 248 251 252 252 251 251 252 248 244 242 245 250 258 275 284 285 292 300 304 306 308 307 308 312 316 316 317 317 316 318 319 319 320 321 321 321 321 323 325 327 326
231 228 225 223 223 225 227 224 226 233 244 263 267 262 261 259 256 247 232 229 231 230 227 222 218 217 217 218 222 226 231 235 239 241 242 246 248 248 249 246 241 241 246 249 250 252 254 256 257 256 254 249 244 241 243 249 259 272 277 283 294 300 303 307 307 306 309 312 315 315 315 315 316 317 318 318 319 319 319 318 319 321 323 323 321
227 225 223 222 221 224 225 225 228 233 240 258 266 258 256 256 247 228 220 224 228 230 231 230 229 226 221 220 222 226 231 235 239 241 244 248 249 247 247 244 239 239 243 246 249 250 252 256 257 256 252 246 239 237 238 243 251 261 270 283 297 301 304 305 304 307 309 311 313 313 313 314 315 315 316 317 317 318 318 317 318 320 320 318 318
224 222 222 221 222 225 226 227 229 230 237 256 262 254 253 255 244 223 219 221 225 231 238 243 243 234 227 226 227 228 231 236 240 244 246 248 248 246 245 244 240 239 243 246 250 254 256 258 259 257 251 242 234 229 229 234 243 256 269 283 294 298 302 301 302 307 308 309 310 310 310 311 312 312 313 315 317 318 317 317 318 318 317 316 316
223 221 222 222 223 227 228 227 227 227 238 256 261 258 258 259 252 237 233 234 235 239 246 252 245 233 231 232 232 231 233 236 240 245 247 248 248 245 244 244 242 242 244 246 249 255 259 260 259 256 248 239 231 225 227 236 245 259 274 286 291 295 297 297 301 305 304 305 306 306 306 307 309 310 312 315 318 318 317 317 316 316 315 315 317
224 221 223 224 224 228 228 226 226 228 239 254 263 266 266 268 266 255 250 252 251 249 247 242 229 219 221 227 229 231 233 236 240 243 245 246 246 243 242 243 243 244 245 244 246 251 258 259 256 252 245 237 230 226 229 239 249 263 276 284 289 292 294 294 297 299 299 300 301 302 303 305 307 309 312 316 318 318 317 315 314 314 315 315 318
222 221 224 225 225 227 226 223 226 231 240 256 264 268 273 278 273 260 251 249 247 241 231 222 218 215 217 223 227 228 231 234 237 240 241 242 243 241 240 242 244 245 246 246 246 248 253 255 254 249 241 235 231 229 231 240 251 263 274 280 284 288 290 290 292 293 294 296 296 298 301 302 305 308 312 316 317 317 315 312 311 313 314 316 318
217 222 226 227 227 227 224 223 227 231 241 255 262 267 274 280 274 261 248 239 232 226 221 217 219 222 224 228 231 229 229 231 233 236 236 237 239 238 238 241 244 246 247 247 246 249 253 253 251 244 236 231 229 228 231 239 252 262 270 277 280 284 287 286 286 288 290 292 294 297 299 301 303 307 311 314 316 314 311 308 309 311 313 314 315
219 224 228 229 229 226 224 226 229 232 242 252 259 265 271 275 273 263 250 236 228 224 220 216 221 229 231 234 234 233 231 231 233 235 235 235 235 235 234 238 244 247 249 248 246 246 249 251 248 240 233 230 226 227 233 241 252 262 269 273 277 281 282 282 281 281 283 286 291 295 297 299 302 306 310 313 313 311 307 306 307 309 311 312 312
222 226 229 229 227 225 226 229 232 236 244 251 257 262 267 274 274 266 251 235 229 227 224 221 227 234 236 235 235 235 233 232 233 235 236 237 237 236 234 236 242 246 249 251 250 248 247 248 247 237 230 230 227 228 236 245 254 262 267 269 271 275 276 277 276 275 278 283 288 291 294 297 299 304 309 311 311 308 305 304 305 307 308 309 310
223 226 229 228 226 226 228 232 236 241 245 250 256 259 264 272 273 268 253 236 229 229 227 226 233 238 236 233 232 232 233 233 234 236 238 242 244 243 240 239 242 247 250 251 251 252 251 244 239 234 229 230 231 232 239 247 254 260 263 265 266 269 272 273 271 273 276 281 285 288 292 294 297 303 307 308 308 305 302 302 303 305 306 308 309
Height
3177 3178 3178 3178 3178 3179 3179 3179 3179 3179 3180 3181 3181 3181 3182 3182 3182 3182 3182 3182 3182 3182 3183 3183 3183 3182 3182 3182 3182 3182 3182 3181 3181 3181 3180 3180 3181 3181 3181 3181 3182 3182 3182 3183 3183 3183 3183 3183 3184 3184 3184 3184 3185 3185 3186 3186 3187 3188 3188 3188 3188 3189 3189 3189 3189 3189 3189 3189 3189 3189 3189 3188 3188 3188 3187 3186 3186 3185 3184 3184 3183 3182 3182 3181 3181
3178 3178 3178 3178 3179 3179 3179 3180 3180 3180 3181 3181 3182 3182 3182 3183 3183 3183 3183 3183 3183 3183 3183 3183 3183 3183 3183 3183 3183 3183 3183 3182 3182 3182 3181 3181 3181 3181 3182 3182 3182 3182 3183 3183 3183 3183 3183 3184 3184 3184 3185 3185 3186 3186 3187 3187 3188 3189 3189 3189 3189 3189 3190 3190 3190 3190 3190 3190 3190 3189 3189 3189 3189 3188 3187 3187 3186 3185 3184 3184 3183 3182 3182 3181 3180
3178 3178 3179 3179 3179 3180 3180 3180 3181 3181 3182 3182 3182 3182 3183 3183 3184 3184 3184 3184 3184 3184 3184 3184 3184 3184 3184 3184 3184 3183 3183 3183 3183 3183 3182 3182 3182 3182 3182 3182 3182 3182 3183 3183 3183 3184 3184 3184 3185 3185 3185 3186 3187 3187 3188 3188 3189 3189 3189 3190 3190 3190 3190 3191 3191 3191 3191 3191 3190 3190 3190 3189 3189 3188 3188 3187 3186 3185 3185 3184 3183 3182 3181 3181 3180
3178 3179 3179 3179 3179 3180 3181 3181 3181 3182 3182 3183 3183 3183 3184 3184 3184 3185 3185 3184 3184 3184 3185 3185 3185 3184 3184 3184 3184 3184 3184 3184 3184 3183 3183 3183 3183 3183 3183 3183 3183 3183 3183 3183 3184 3184 3184 3185 3185 3185 3186 3187 3187 3188 3188 3189 3189 3190 3190 3190 3191 3191 3191 3191 3191 3191 3191 3191 3191 3190 3190 3190 3189 3189 3188 3187 3186 3185 3185 3184 3183 3182 3181 3180 3179
3178 3179 3179 3180 3180 3180 3181 3181 3182 3182 3183 3183 3183 3184 3184 3185 3185 3185 3185 3185 3185 3185 3185 3185 3185 3185 3185 3185 3185 3185 3185 3185 3184 3184 3184 3184 3184 3184 3184 3183 3184 3183 3183 3184 3184 3184 3184 3185 3186 3186 3186 3187 3188 3188 3189 3189 3190 3190 3190 3191 3191 3191 3192 3192 3192 3191 3191 3191 3191 3190 3190 3190 3189 3189 3188 3187 3186 3185 3184 3183 3182 3181 3180 3180 3179
3178 3179 3180 3180 3180 3181 3181 3182 3182 3183 3183 3183 3184 3184 3185 3185 3185 3186 3186 3186 3186 3186 3186 3185 3185 3185 3185 3185 3185 3185 3185 3185 3185 3185 3185 3185 3184 3184 3184 3184 3184 3184 3184 3184 3184 3184 3185 3185 3186 3186 3187 3187 3188 3189 3189 3189 3190 3190 3191 3191 3192 3192 3192 3192 3192 3191 3191 3191 3191 3190 3190 3190 3189 3189 3188 3187 3186 3185 3184 3183 3182 3181 3180 3179 3178
3178 3179 3179 3180 3181 3181 3182 3182 3182 3183 3183 3184 3184 3185 3185 3185 3186 3186 3186 3186 3186 3186 3186 3186 3186 3186 3186 3186 3186 3186 3186 3186 3186 3186 3186 3185 3185 3185 3185 3185 3184 3184 3184 3184 3184 3185 3185 3186 3186 3187 3187 3187 3188 3189 3189 3190 3190 3191 3192 3192 3192 3192 3192 3192 3192 3191 3191 3191 3191 3191 3190 3190 3189 3189 3188 3186 3185 3184 3183 3182 3182 3181 3180 3179 3178
3178 3178 3179 3180 3181 3181 3182 3183 3183 3183 3184 3184 3184 3185 3185 3186 3186 3186 3187 3187 3187 3187 3187 3186 3186 3186 3186 3186 3186 3186 3186 3186 3186 3186 3186 3186 3186 3186 3186 3185 3185 3185 3185 3185 3185 3185 3186 3186 3186 3187 3187 3188 3188 3188 3189 3190 3191 3192 3192 3192 3192 3192 3192 3192 3192 3192 3192 3191 3191 3191 3190 3190 3189 3189 3188 3186 3185 3184 3183 3182 3181 3180 3180 3179 3178
3178 3178 3178 3180 3180 3181 3182 3183 3183 3183 3184 3184 3185 3185 3186 3186 3186 3187 3187 3187 3187 3187 3187 3187 3187 3187 3187 3186 3187 3187 3187 3187 3187 3187 3187 3187 3186 3186 3186 3186 3186 3186 3186 3186 3186 3186 3186 3186 3187 3187 3188 3188 3188 3189 3190 3191 3192 3192 3193 3193 3193 3193 3193 3193 3192 3192 3192 3192 3191 3191 3190 3190 3190 3189 3188 3186 3185 3184 3184 3183 3182 3181 3180 3179 3178
3178 3178 3178 3179 3180 3181 3182 3183 3183 3183 3184 3184 3185 3186 3186 3186 3186 3187 3187 3187 3187 3187 3187 3187 3187 3187 3187 3187 3187 3187 3187 3187 3187 3187 3187 3187 3187 3187 3187 3187 3187 3186 3186 3186 3186 3186 3187 3187 3187 3187 3188 3188 3189 3189 3190 3191 3192 3193 3193 3194 3193 3193 3193 3193 3193 3193 3192 3192 3192 3191 3191 3190 3190 3189 3188 3187 3186 3185 3184 3183 3182 3181 3180 3179 3179
3177 3178 3178 3178 3180 3181 3182 3183 3183 3184 3184 3184 3185 3186 3186 3186 3186 3187 3187 3187 3187 3187 3187 3188 3187 3187 3188 3187 3187 3187 3187 3187 3187 3187 3187 3188 3187 3188 3188 3188 3187 3187 3187 3187 3187 3187 3187 3188 3188 3188 3188 3189 3189 3190 3191 3192 3193 3193 3194 3194 3194 3194 3194 3194 3193 3193 3193 3192 3192 3192 3191 3191 3190 3189 3188 3187 3186 3185 3184 3184 3183 3182 3181 3180 3179
3177 3177 3178 3178 3179 3180 3181 3182 3183 3183 3184 3184 3185 3186 3186 3186 3186 3186 3187 3187 3187 3187 3187 3188 3188 3188 3188 3188 3188 3188 3188 3188 3188 3188 3188 3188 3188 3188 3188 3188 3188 3188 3188 3188 3188 3188 3188 3188 3188 3188 3189 3189 3190 3191 3192 3192 3193 3194 3194 3194 3194 3194 3194 3194 3194 3193 3193 3193 3192 3192 3191 3191 3190 3189 3189 3188 3187 3186 3185 3184 3183 3182 3181 3181 3180
3177 3177 3177 3178 3179 3180 3181 3182 3183 3183 3184 3184 3185 3186 3186 3186 3186 3186 3186 3186 3187 3187 3187 3188 3188 3188 3188 3188 3188 3188 3188 3188 3188 3188 3188 3188 3188 3188 3189 3189 3188 3188 3188 3188 3188 3188 3188 3188 3189 3189 3190 3190 3191 3192 3193 3193 3193 3194 3194 3194 3195 3195 3195 3194 3194 3194 3193 3193 3193 3192 3191 3191 3190 3189 3189 3188 3187 3186 3186 3185 3184 3183 3182 3182 3181
3176 3176 3177 3177 3178 3179 3180 3181 3182 3183 3183 3184 3184 3185 3186 3186 3186 3186 3186 3186 3187 3187 3187 3188 3188 3188 3188 3188 3188 3188 3188 3188 3188 3188 3188 3188 3188 3189 3189 3189 3189 3189 3189 3189 3189 3189 3189 3189 3189 3190 3191 3191 3192 3193 3193 3194 3194 3194 3195 3195 3195 3195 3195 3195 3194 3194 3194 3193 3193 3192 3191 3191 3190 3189 3189 3188 3188 3187 3186 3186 3185 3184 3183 3182 3181
3175 3175 3176 3177 3178 3178 3179 3180 3181 3182 3183 3183 3184 3185 3185 3186 3186 3186 3186 3186 3186 3186 3187 3187 3188 3188 3188 3188 3188 3188 3188 3188 3188 3188 3188 3188 3189 3189 3189 3190 3190 3189 3189 3189 3189 3189 3189 3189 3190 3191 3191 3192 3193 3193 3194 3194 3194 3195 3195 3195 3195 3195 3195 3195 3195 3194 3194 3193 3193 3192 3191 3191 3190 3190 3189 3188 3188 3187 3187 3186 3185 3184 3183 3182 3181
3174 3174 3175 3176 3177 3178 3179 3180 3181 3181 3182 3183 3183 3184 3185 3185 3185 3185 3185 3185 3186 3186 3186 3187 3187 3188 3188 3188 3188 3188 3188 3188 3188 3188 3188 3189 3189 3190 3190 3190 3190 3190 3190 3190 3190 3190 3190 3190 3191 3192 3192 3192 3193 3194 3194 3194 3195 3195 3195 3196 3196 3196 3195 3195 3195 3194 3194 3193 3193 3192 3191 3191 3190 3190 3189 3189 3188 3188 3187 3186 3185 3184 3184 3183 3182
3173 3174 3174 3175 3176 3177 3178 3179 3180 3181 3181 3182 3183 3184 3184 3184 3184 3184 3185 3185 3185 3185 3186 3186 3187 3187 3188 3188 3188 3188 3188 3188 3188 3188 3188 3189 3190 3190 3190 3190 3190 3190 3190 3190 3190 3190 3190 3191 3192 3192 3192 3193 3194 3194 3194 3194 3195 3195 3196 3196 3196 3196 3195 3195 3195 3195 3194 3193 3193 3192 3191 3191 3190 3190 3189 3189 3188 3188 3187 3186 3186 3185 3184 3183 3181
3172 3173 3174 3174 3175 3175 3177 3178 3179 3180 3180 3181 3182 3183 3183 3183 3183 3183 3184 3184 3184 3185 3185 3186 3186 3187 3187 3188 3188 3188 3188 3188 3188 3188 3189 3189 3190 3190 3190 3190 3190 3190 3190 3190 3190 3190 3191 3192 3192 3192 3192 3193 3194 3194 3194 3195 3195 3195 3196 3196 3196 3195 3195 3195 3195 3194 3194 3193 3193 3192 3192 3191 3190 3190 3189 3189 3189 3188 3187 3187 3186 3185 3184 3182 3181
3172 3172 3173 3173 3174 3174 3175 3177 3178 3179 3180 3181 3182 3182 3182 3182 3182 3182 3183 3183 3184 3184 3185 3185 3186 3187 3187 3187 3187 3188 3188 3188 3188 3188 3188 3189 3190 3190 3190 3190 3190 3190 3190 3190 3190 3191 3191 3192 3192 3192 3192 3193 3194 3194 3195 3195 3195 3195 3195 3196 3196 3195 3195 3195 3195 3194 3194 3193 3193 3192 3192 3191 3190 3190 3190 3189 3189 3188 3187 3186 3186 3184 3183 3182 3180
3171 3172 3172 3173 3173 3174 3175 3176 3177 3178 3179 3180 3181 3181 3181 3181 3181 3181 3182 3182 3183 3183 3184 3185 3185 3186 3186 3187 3187 3187 3188 3188 3188 3188 3188 3189 3189 3190 3190 3190 3190 3190 3190 3191 3191 3191 3191 3192 3192 3192 3192 3193 3194 3194 3195 3195 3195 3195 3195 3195 3195 3195 3195 3195 3195 3194 3194 3193 3192 3192 3191 3191 3190 3190 3189 3189 3189 3188 3187 3186 3185 3184 3182 3181 3180
3169 3171 3172 3173 3173 3173 3174 3175 3176 3177 3178 3179 3180 3180 3180 3180 3180 3180 3181 3182 3182 3183 3183 3184 3185 3185 3186 3186 3186 3187 3187 3187 3188 3188 3188 3189 3189 3190 3190 3190 3190 3190 3190 3191 3191 3191 3191 3191 3192 3192 3192 3193 3193 3194 3195 3195 3195 3195 3195 3195 3195 3195 3195 3195 3194 3194 3193 3193 3192 3191 3191 3190 3190 3189 3189 3189 3189 3187 3186 3185 3184 3183 3182 3180 3179
3167 3169 3171 3172 3172 3173 3174 3174 3175 3176 3177 3178 3179 3179 3179 3179 3179 3179 3180 3181 3181 3182 3182 3183 3184 3184 3185 3185 3186 3186 3187 3187 3187 3188 3189 3189 3189 3190 3190 3190 3190 3190 3190 3190 3191 3191 3191 3191 3191 3191 3192 3192 3193 3194 3195 3195 3195 3195 3195 3195 3195 3195 3195 3194 3194 3193 3193 3192 3191 3191 3190 3190 3189 3189 3189 3189 3188 3187 3185 3184 3183 3182 3181 3180 3178
3166 3168 3169 3171 3171 3172 3173 3174 3175 3176 3177 3177 3178 3178 3178 3178 3178 3178 3179 3180 3180 3181 3181 3182 3183 3184 3184 3185 3185 3186 3186 3187 3187 3188 3188 3189 3189 3189 3189 3190 3190 3190 3190 3190 3190 3191 3191 3191 3191 3191 3191 3192 3193 3194 3194 3194 3195 3195 3194 3194 3194 3194 3194 3194 3193 3193 3192 3192 3191 3190 3190 3190 3189 3189 3188 3188 3187 3186 3185 3184 3183 3182 3180 3179 3177
3166 3167 3168 3169 3170 3171 3172 3173 3174 3175 3176 3176 3177 3177 3177 3177 3178 3178 3178 3179 3179 3180 3180 3181 3182 3183 3183 3184 3184 3185 3186 3186 3187 3187 3188 3188 3189 3189 3189 3189 3189 3189 3189 3190 3190 3190 3190 3191 3191 3191 3191 3191 3192 3194 3194 3194 3194 3194 3194 3194 3194 3194 3194 3193 3193 3192 3192 3191 3190 3190 3190 3189 3189 3188 3188 3187 3186 3185 3184 3183 3182 3181 3179 3178 3176
3166 3167 3167 3168 3169 3170 3171 3172 3173 3174 3175 3176 3176 3176 3177 3177 3177 3177 3178 3178 3178 3179 3179 3180 3181 3182 3183 3183 3184 3184 3185 3186 3186 3187 3187 3188 3188 3188 3188 3188 3188 3189 3189 3189 3189 3190 3190 3190 3190 3190 3190 3191 3192 3193 3193 3193 3193 3193 3193 3194 3194 3194 3193 3193 3192 3192 3191 3190 3190 3190 3189 3189 3188 3188 3187 3187 3186 3185 3184 3182 3181 3180 3179 3177 3176
3165 3166 3166 3167 3168 3169 3170 3171 3172 3173 3174 3175 3175 3175 3176 3176 3176 3177 3177 3177 3177 3178 3178 3179 3180 3181 3182 3182 3183 3183 3184 3185 3186 3186 3186 3187 3187 3187 3187 3187 3188 3188 3188 3188 3189 3189 3190 3190 3190 3190 3190 3191 3192 3193 3193 3193 3193 3193 3193 3193 3193 3193 3193 3192 3192 3191 3190 3190 3189 3189 3189 3189 3188 3187 3187 3186 3185 3184 3183 3182 3180 3179 3178 3177 3176
3163 3164 3165 3166 3167 3168 3169 3170 3171 3172 3173 3174 3174 3174 3175 3175 3176 3176 3177 3177 3177 3177 3178 3178 3179 3180 3180 3181 3182 3183 3183 3184 3185 3185 3185 3186 3186 3186 3186 3186 3187 3187 3187 3188 3188 3189 3189 3189 3189 3189 3190 3190 3191 3192 3192 3192 3192 3192 3192 3192 3193 3192 3192 3192 3191 3190 3190 3189 3189 3189 3189 3188 3187 3187 3186 3186 3184 3183 3182 3181 3180 3179 3178 3177 3175
3161 3163 3164 3165 3167 3167 3167 3168 3169 3170 3171 3172 3173 3174 3174 3174 3175 3176 3176 3176 3176 3176 3177 3177 3178 3179 3179 3180 3181 3182 3182 3183 3184 3184 3184 3184 3185 3185 3185 3185 3186 3186 3186 3187 3187 3188 3188 3189 3188 3188 3189 3190 3190 3191 3191 3191 3192 3192 3192 3192 3192 3192 3191 3191 3190 3190 3189 3188 3188 3188 3188 3187 3187 3186 3185 3184 3183 3182 3181 3180 3179 3178 3177 3176 3175
3160 3161 3163 3164 3165 3166 3166 3167 3168 3169 3170 3171 3172 3172 3173 3173 3174 3175 3175 3175 3176 3176 3176 3176 3177 3177 3178 3179 3180 3181 3181 3182 3183 3183 3183 3183 3184 3184 3184 3185 3185 3185 3186 3186 3187 3187 3187 3188 3188 3188 3188 3189 3189 3190 3190 3191 3191 3191 3191 3191 3191 3191 3190 3190 3190 3189 3188 3188 3188 3188 3187 3187 3186 3185 3184 3183 3182 3181 3181 3180 3179 3178 3177 3176 3174
3158 3159 3161 3161 3163 3164 3165 3166 3166 3167 3168 3169 3171 3171 3172 3172 3173 3174 3175 3175 3175 3175 3175 3175 3175 3176 3177 3177 3178 3179 3180 3181 3181 3182 3182 3182 3182 3183 3183 3184 3184 3185 3185 3185 3186 3186 3186 3187 3187 3187 3188 3188 3188 3189 3189 3190 3190 3190 3190 3190 3190 3190 3190 3190 3189 3188 3188 3188 3187 3187 3186 3186 3185 3184 3183 3182 3181 3180 3180 3179 3178 3177 3176 3175 3174
3158 3158 3159 3160 3161 3162 3163 3164 3165 3166 3167 3168 3169 3170 3170 3171 3172 3173 3174 3174 3174 3174 3174 3174 3174 3175 3175 3176 3177 3178 3178 3179 3180 3181 3181 3181 3181 3182 3182 3183 3183 3184 3184 3184 3185 3185 3185 3186 3186 3187 3187 3187 3188 3188 3189 3189 3189 3189 3189 3189 3189 3189 3189 3189 3188 3188 3187 3187 3187 3186 3185 3185 3184 3183 3182 3181 3181 3180 3179 3178 3177 3176 3175 3174 3173
3157 3157 3158 3159 3160 3161 3162 3162 3163 3164 3165 3166 3167 3168 3169 3170 3171 3172 3173 3173 3173 3173 3173 3172 3173 3173 3174 3175 3176 3177 3177 3178 3179 3179 3180 3180 3180 3180 3181 3182 3182 3183 3183 3183 3184 3184 3185 3185 3185 3186 3186 3186 3187 3187 3188 3188 3188 3188 3188 3188 3188 3188 3188 3188 3188 3187 3187 3186 3186 3185 3185 3184 3183 3182 3182 3181 3180 3179 3178 3177 3176 3175 3174 3173 3171
3155 3156 3156 3157 3158 3159 3160 3161 3161 3162 3164 3164 3165 3167 3168 3169 3170 3171 3171 3172 3172 3172 3171 3171 3172 3172 3173 3173 3174 3175 3176 3177 3178 3178 3178 3179 3179 3179 3180 3181 3181 3182 3182 3183 3183 3184 3184 3184 3185 3185 3186 3186 3186 3187 3187 3187 3187 3188 3188 3188 3188 3188 3188 3187 3187 3187 3186 3186 3185 3184 3184 3183 3182 3181 3181 3180 3179 3178 3177 3176 3175 3174 3173 3171 3170
3153 3154 3154 3155 3156 3157 3158 3158 3159 3161 3162 3163 3164 3165 3166 3167 3168 3169 3170 3171 3171 3171 3170 3170 3170 3171 3171 3172 3173 3174 3175 3176 3176 3176 3177 3178 3178 3179 3179 3180 3180 3181 3181 3182 3183 3183 3184 3184 3184 3184 3185 3185 3185 3186 3186 3186 3187 3187 3187 3187 3187 3187 3186 3186 3186 3186 3185 3185 3184 3184 3183 3182 3181 3180 3179 3178 3177 3177 3176 3174 3173 3172 3171 3170 3169
3151 3152 3153 3153 3153 3154 3155 3156 3158 3159 3160 3161 3162 3164 3165 3166 3167 3168 3169 3169 3169 3169 3168 3168 3169 3170 3170 3170 3172 3173 3174 3174 3175 3175 3176 3177 3178 3178 3178 3179 3179 3180 3180 3181 3181 3182 3183 3183 3183 3183 3184 3184 3184 3185 3185 3185 3186 3186 3186 3186 3186 3185 3185 3185 3185 3185 3184 3184 3183 3183 3182 3181 3180 3179 3178 3177 3176 3175 3174 3173 3172 3171 3170 3169 3167
3148 3150 3151 3151 3151 3152 3153 3155 3156 3157 3159 3160 3161 3162 3163 3164 3165 3166 3167 3168 3168 3167 3167 3167 3168 3168 3168 3169 3170 3171 3172 3173 3174 3174 3175 3176 3177 3177 3177 3178 3178 3179 3179 3180 3180 3181 3182 3182 3182 3182 3183 3183 3184 3184 3184 3185 3185 3185 3185 3185 3185 3185 3184 3184 3184 3184 3184 3183 3183 3182 3181 3180 3179 3178 3177 3176 3175 3174 3173 3172 3171 3170 3169 3168 3166
3145 3147 3149 3149 3149 3150 3151 3153 3154 3155 3157 3158 3159 3160 3161 3162 3163 3164 3165 3166 3166 3166 3166 3166 3166 3167 3167 3168 3169 3170 3171 3172 3173 3173 3174 3175 3175 3176 3176 3177 3177 3178 3179 3179 3179 3180 3181 3181 3181 3181 3182 3182 3183 3183 3183 3184 3184 3184 3184 3184 3184 3184 3184 3184 3183 3183 3183 3182 3181 3181 3180 3178 3177 3176 3176 3175 3174 3173 3172 3171 3170 3169 3168 3166 3165
3142 3145 3146 3147 3147 3148 3150 3151 3152 3154 3155 3156 3158 3158 3159 3160 3161 3162 3163 3164 3164 3164 3164 3164 3165 3165 3166 3167 3168 3169 3170 3171 3172 3172 3173 3174 3174 3175 3175 3176 3176 3177 3178 3178 3178 3179 3180 3180 3180 3180 3181 3181 3182 3182 3182 3182 3183 3183 3183 3183 3183 3183 3183 3183 3182 3182 3181 3181 3180 3179 3178 3177 3176 3176 3175 3174 3173 3172 3171 3170 3169 3167 3166 3165 3163
3139 3142 3144 3145 3145 3146 3148 3149 3150 3152 3153 3155 3156 3157 3158 3158 3159 3160 3161 3162 3162 3162 3163 3163 3163 3164 3165 3165 3166 3168 3169 3170 3170 3171 3172 3172 3173 3173 3174 3175 3175 3176 3177 3177 3177 3178 3178 3179 3179 3179 3180 3180 3180 3181 3181 3181 3181 3181 3182 3182 3182 3182 3182 3181 3181 3181 3180 3180 3179 3177 3177 3176 3175 3174 3173 3172 3171 3171 3170 3168 3167 3166 3165 3164 3162
3135 3138 3140 3142 3142 3144 3145 3147 3148 3150 3151 3153 3154 3155 3156 3157 3157 3158 3159 3160 3160 3161 3161 3161 3162 3162 3163 3164 3165 3166 3167 3168 3169 3169 3170 3171 3171 3172 3173 3174 3174 3175 3175 3176 3176 3176 3177 3177 3178 3178 3178 3179 3179 3179 3180 3180 3180 3180 3181 3181 3181 3181 3181 3180 3180 3179 3179 3178 3177 3176 3175 3175 3174 3173 3172 3171 3170 3169 3168 3167 3166 3165 3163 3162 3161
3131 3134 3137 3139 3140 3141 3143 3145 3146 3148 3149 3151 3152 3153 3154 3155 3156 3157 3158 3158 3159 3159 3160 3160 3160 3161 3162 3162 3163 3165 3166 3167 3167 3168 3169 3170 3170 3171 3172 3172 3173 3173 3174 3174 3174 3175 3175 3176 3176 3177 3177 3177 3177 3178 3178 3178 3179 3179 3180 3180 3180 3180 3179 3179 3179 3178 3177 3176 3175 3174 3174 3173 3172 3171 3171 3170 3169 3168 3167 3165 3164 3163 3162 3161 3160
3128 3132 3135 3136 3137 3138 3140 3142 3144 3145 3147 3149 3150 3151 3153 3153 3154 3155 3156 3156 3157 3158 3158 3158 3159 3159 3160 3161 3162 3163 3164 3165 3165 3166 3167 3168 3169 3170 3170 3171 3171 3172 3172 3172 3173 3173 3174 3174 3175 3175 3176 3176 3176 3177 3177 3178 3178 3178 3179 3179 3179 3178 3178 3178 3177 3177 3176 3174 3174 3173 3172 3172 3171 3170 3169 3168 3167 3166 3165 3164 3163 3162 3161 3160 3159
3124 3128 3131 3132 3133 3135 3138 3140 3141 3143 3145 3147 3148 3149 3151 3152 3152 3152 3153 3154 3155 3156 3156 3156 3157 3158 3158 3159 3160 3161 3163 3163 3164 3165 3166 3167 3167 3168 3169 3170 3170 3170 3171 3171 3171 3172 3172 3173 3173 3174 3174 3175 3175 3176 3176 3177 3177 3177 3177 3177 3177 3177 3177 3176 3176 3175 3174 3173 3172 3172 3171 3171 3170 3169 3168 3167 3166 3165 3164 3163 3162 3161 3160 3159 3158
3120 3124 3127 3129 3131 3133 3135 3137 3139 3141 3143 3145 3146 3147 3148 3149 3150 3150 3150 3151 3153 3153 3153 3154 3155 3156 3157 3158 3159 3160 3161 3162 3162 3163 3164 3165 3165 3166 3167 3168 3169 3169 3169 3170 3170 3170 3171 3171 3171 3172 3173 3173 3174 3175 3175 3176 3176 3176 3176 3176 3176 3176 3176 3175 3174 3174 3173 3172 3171 3171 3170 3170 3169 3168 3167 3166 3165 3164 3163 3162 3161 3160 3159 3158 3157
3116 3121 3125 3127 3129 3131 3133 3135 3137 3138 3140 3142 3143 3144 3145 3146 3147 3147 3148 3149 3150 3150 3151 3152 3153 3154 3155 3156 3157 3158 3159 3160 3161 3161 3162 3163 3164 3164 3165 3166 3167 3167 3168 3168 3168 3168 3169 3169 3170 3170 3171 3172 3173 3173 3174 3174 3175 3175 3175 3175 3175 3175 3174 3173 3173 3172 3172 3171 3170 3170 3169 3169 3168 3167 3166 3165 3164 3163 3161 3160 3159 3158 3157 3157 3156
3113 3119 3122 3125 3127 3129 3131 3133 3134 3136 3138 3139 3140 3141 3142 3144 3145 3145 3146 3147 3148 3149 3150 3151 3152 3153 3154 3154 3155 3156 3157 3158 3159 3160 3160 3161 3162 3163 3163 3164 3165 3166 3166 3166 3166 3167 3168 3168 3169 3169 3170 3171 3171 3172 3172 3173 3173 3173 3173 3173 3173 3173 3173 3172 3171 3171 3171 3170 3170 3169 3168 3167 3166 3165 3164 3164 3163 3161 3160 3159 3158 3157 3156 3155 3154
3111 3116 3119 3122 3124 3126 3128 3130 3132 3134 3135 3136 3137 3138 3140 3141 3142 3143 3144 3145 3147 3148 3149 3149 3150 3151 3152 3152 3153 3154 3155 3156 3157 3158 3158 3159 3160 3161 3161 3162 3163 3163 3164 3164 3165 3165 3166 3167 3167 3168 3169 3170 3170 3171 3171 3172 3172 3172 3172 3172 3171 3171 3171 3171 3170 3170 3169 3169 3168 3168 3167 3166 3165 3164 3163 3162 3161 3160 3158 3157 3156 3155 3155 3154 3153
3110 3113 3115 3118 3121 3124 3126 3128 3130 3131 3132 3133 3134 3135 3137 3138 3139 3141 3142 3143 3145 3147 3147 3147 3148 3149 3149 3150 3151 3152 3153 3154 3155 3156 3157 3158 3158 3159 3159 3160 3161 3161 3162 3162 3163 3164 3165 3166 3166 3167 3168 3168 3169 3170 3170 3170 3171 3170 3170 3170 3170 3170 3170 3170 3169 3169 3168 3168 3167 3166 3165 3164 3163 3162 3162 3161 3159 3158 3157 3156 3155 3154 3153 3152 3151
3106 3108 3112 3116 3119 3121 3123 3125 3127 3128 3129 3130 3131 3133 3134 3136 3137 3138 3140 3141 3143 3144 3145 3145 3146 3147 3148 3148 3149 3150 3151 3152 3153 3154 3155 3156 3156 3157 3157 3158 3159 3159 3160 3161 3162 3163 3164 3165 3165 3166 3167 3167 3168 3168 3169 3169 3169 3169 3169 3169 3168 3168 3168 3168 3168 3168 3167 3166 3165 3165 3164 3162 3162 3161 3160 3159 3158 3157 3156 3154 3153 3153 3152 3151 3150
3102 3105 3109 3112 3114 3117 3119 3122 3124 3125 3126 3128 3129 3131 3132 3133 3135 3136 3137 3139 3141 3142 3142 3143 3144 3145 3146 3147 3148 3149 3149 3150 3151 3152 3153 3154 3154 3155 3156 3157 3157 3158 3159 3160 3161 3161 3162 3164 3164 3164 3165 3166 3167 3167 3167 3168 3167 3167 3167 3167 3167 3167 3167 3167 3166 3166 3165 3165 3164 3163 3162 3161 3160 3159 3159 3158 3156 3155 3154 3153 3152 3151 3151 3150 3149
3098 3101 3104 3107 3111 3114 3116 3119 3121 3122 3124 3126 3127 3128 3130 3131 3132 3134 3135 3137 3138 3139 3140 3141 3142 3143 3144 3145 3146 3147 3147 3148 3149 3150 3151 3152 3152 3153 3154 3155 3156 3156 3157 3158 3159 3159 3160 3162 3162 3162 3164 3165 3166 3166 3166 3166 3166 3166 3166 3166 3166 3165 3165 3165 3165 3164 3164 3163 3162 3162 3161 3160 3159 3158 3157 3156 3155 3153 3152 3151 3150 3150 3149 3148 3148